FW0428 Weather Reports


time (UTC)temp
F
wind
direction
speed
knots
gust
knots
rain 1hr
in
rain 24hr
in
rain mn
in
humidity
%
barometer
mb
20260502150128 64 137 0.0 1.7 0.00 0.08 0.00 71 1020.5
20260502130136 55 128 0.0 0.9 0.00 0.17 0.00 86 1019.5
20260502120151 53 138 0.0 0.0 0.00 0.20 0.00 88 1018.7
20260502113049 52 138 0.0 0.9 0.00 0.20 0.00 87 1018.3
20260502111619 53 138 0.0 0.9 0.00 0.20 0.00 85 1017.9
20260502110111 53 138 0.0 1.7 0.00 0.23 0.00 84 1017.9
20260502070020 54 141 0.0 1.7 0.00 0.23 0.00 90 1017.3
20260502064602 53 140 0.0 1.7 0.00 0.23 0.00 90 1017.4
20260502063006 53 138 0.0 0.0 0.00 0.23 0.00 90 1017.3
20260502061508 54 142 0.0 0.0 0.00 0.23 0.00 91 1017.3
20260502060051 54 137 0.0 0.0 0.00 0.23 0.00 92 1017.3
20260502054504 54 146 0.0 0.0 0.00 0.23 0.00 92 1017.2
20260502053055 54 146 0.0 0.0 0.00 0.23 0.00 92 1017.2
20260502051513 54 146 0.0 0.0 0.00 0.23 0.00 92 1017.1
20260502050150 54 146 0.0 0.0 0.00 0.23 0.23 92 1017.0
20260502041506 54 254 0.0 0.0 0.00 0.23 0.23 91 1016.8
20260502040029 54 254 0.0 0.0 0.00 0.23 0.23 91 1016.9
20260502034555 55 254 0.0 0.0 0.00 0.23 0.23 90 1016.7
20260502030159 55 254 0.0 0.0 0.00 0.23 0.23 89 1016.7
20260502020020 56 254 0.0 0.0 0.00 0.23 0.23 89 1015.8
20260502014517 56 255 0.0 0.0 0.00 0.23 0.23 89 1016.0
20260502013056 56 255 0.0 0.0 0.00 0.23 0.23 88 1016.1
20260502010119 56 254 0.0 0.0 0.00 0.23 0.23 87 1015.9
20260502004507 56 255 0.0 0.0 0.00 0.23 0.23 86 1014.9
20260502003044 56 254 0.0 0.0 0.00 0.23 0.23 85 1015.0
20260502001637 56 243 0.0 1.7 0.00 0.23 0.23 84 1014.7
20260502000149 56 258 0.0 1.7 0.00 0.23 0.23 83 1014.7
20260501233123 57 240 0.9 3.5 0.00 0.23 0.23 80 1014.7
20260501230045 57 271 1.7 4.3 0.00 0.23 0.23 78 1013.7
20260501221607 58 237 0.0 1.7 0.00 0.23 0.23 78 1013.9
20260501214606 58 227 1.7 4.3 0.00 0.23 0.23 77 1012.6
20260501213029 58 244 2.6 7.0 0.00 0.23 0.23 78 1012.3
20260501201539 58 264 1.7 5.2 0.00 0.24 0.23 78 1014.7
20260501194557 58 235 1.7 8.7 0.00 0.26 0.23 80 1012.4
20260501190119 55 254 0.9 5.2 0.00 0.28 0.23 90 1012.9
20260501184638 54 67 3.5 11.3 0.01 0.28 0.23 95 1013.0
20260501181520 54 80 0.9 8.7 0.01 0.28 0.23 95 1014.1
20260501173122 53 284 0.9 5.2 0.00 0.50 0.22 94 1014.9